EJU653N LFMN-LFRN

Flight info

Callsign EJU653N
Flight time 1h 22m
Altitude 36000
Route BODRU DCT KOTIT DCT ETREK DCT NOQAS DCT LERGA DCT FOUCO DCT MANAK UY110 TIRAV/N0422F340 UT501 USODA/N0333F180 T501 ENOKI
Aircraft A320/M-SDE2E3FGHIJ1RWXYZ/LB1

Departure

Time 2026-04-22 17:18
Airport Nice-Côte d'Azur Airport (LFMN)

Arrival

Time 2026-04-22 18:40
Airport Rennes-Saint-Jacques Airport (LFRN)
Time Latitude Longitude Altitude Speed Heading
2026-04-22 16:37 43.66227 7.20666 21 ft 0 kts 261°
2026-04-22 17:08 43.66230 7.20690 22 ft 4 kts 261°
2026-04-22 17:08 43.66234 7.20726 22 ft 4 kts 256°
2026-04-22 17:08 43.66245 7.20755 23 ft 4 kts 202°
2026-04-22 17:09 43.66265 7.20759 21 ft 3 kts 171°
2026-04-22 17:09 43.66276 7.20756 22 ft 0 kts 171°
2026-04-22 17:11 43.66276 7.20757 22 ft 0 kts 171°
2026-04-22 17:11 43.66254 7.20761 22 ft 7 kts 171°
2026-04-22 17:11 43.66191 7.20776 21 ft 12 kts 171°
2026-04-22 17:11 43.66101 7.20796 21 ft 13 kts 171°
2026-04-22 17:12 43.66006 7.20817 21 ft 15 kts 171°
2026-04-22 17:12 43.65896 7.20842 21 ft 17 kts 171°
2026-04-22 17:12 43.65790 7.20865 21 ft 12 kts 171°
2026-04-22 17:12 43.65716 7.20819 21 ft 13 kts 223°
2026-04-22 17:13 43.65650 7.20729 21 ft 14 kts 225°
2026-04-22 17:13 43.65587 7.20642 21 ft 12 kts 225°
2026-04-22 17:13 43.65510 7.20536 21 ft 19 kts 225°
2026-04-22 17:13 43.65414 7.20404 21 ft 20 kts 225°
2026-04-22 17:14 43.65324 7.20297 21 ft 15 kts 201°
2026-04-22 17:14 43.65239 7.20346 21 ft 13 kts 137°
2026-04-22 17:14 43.65178 7.20429 21 ft 11 kts 135°
2026-04-22 17:14 43.65106 7.20503 23 ft 15 kts 159°
2026-04-22 17:15 43.65041 7.20505 23 ft 14 kts 194°
2026-04-22 17:15 43.64951 7.20407 22 ft 12 kts 225°
2026-04-22 17:15 43.64892 7.20327 22 ft 12 kts 225°
2026-04-22 17:15 43.64832 7.20244 21 ft 13 kts 225°
2026-04-22 17:16 43.64758 7.20181 22 ft 12 kts 183°
2026-04-22 17:16 43.64700 7.20236 23 ft 9 kts 131°
2026-04-22 17:16 43.64707 7.20297 25 ft 6 kts 45°
2026-04-22 17:16 43.64714 7.20307 25 ft 0 kts 45°
2026-04-22 17:17 43.64733 7.20332 23 ft 21 kts 44°
2026-04-22 17:17 43.65029 7.20738 23 ft 96 kts 45°
2026-04-22 17:17 43.65644 7.21584 29 ft 151 kts 45°
2026-04-22 17:18 43.66447 7.22663 529 ft 162 kts 42°
2026-04-22 17:18 43.67070 7.23960 1236 ft 166 kts 72°
2026-04-22 17:18 43.67094 7.25539 2119 ft 166 kts 107°
2026-04-22 17:18 43.66493 7.26849 2822 ft 164 kts 139°
2026-04-22 17:19 43.64684 7.28755 4134 ft 163 kts 142°
2026-04-22 17:19 43.62855 7.29876 4714 ft 197 kts 185°
2026-04-22 17:20 43.61071 7.27010 5513 ft 228 kts 275°
2026-04-22 17:20 43.62634 7.23351 7273 ft 225 kts 311°
2026-04-22 17:21 43.63683 7.21750 8117 ft 225 kts 311°
2026-04-22 17:21 43.65856 7.18421 9290 ft 253 kts 311°
2026-04-22 17:22 43.68344 7.14608 10460 ft 280 kts 312°
2026-04-22 17:22 43.69701 7.12525 10752 ft 302 kts 312°
2026-04-22 17:22 43.72629 7.08028 11715 ft 329 kts 311°
2026-04-22 17:23 43.74171 7.05658 12345 ft 334 kts 311°
2026-04-22 17:23 43.77299 7.00846 13958 ft 338 kts 311°
2026-04-22 17:23 43.78869 6.98423 14666 ft 340 kts 311°
2026-04-22 17:24 43.80452 6.95976 15354 ft 342 kts 311°
2026-04-22 17:24 43.82043 6.93516 16013 ft 344 kts 311°
2026-04-22 17:24 43.83649 6.91031 16664 ft 347 kts 311°
2026-04-22 17:24 43.85267 6.88528 17324 ft 350 kts 311°
2026-04-22 17:25 43.86898 6.86001 17974 ft 353 kts 311°
2026-04-22 17:25 43.88542 6.83451 18576 ft 356 kts 311°
2026-04-22 17:25 43.90198 6.80882 19083 ft 359 kts 311°
2026-04-22 17:25 43.91868 6.78288 19615 ft 362 kts 311°
2026-04-22 17:26 43.93546 6.75677 20140 ft 364 kts 311°
2026-04-22 17:26 43.95264 6.73080 20672 ft 366 kts 313°
2026-04-22 17:26 43.97056 6.70549 21194 ft 369 kts 314°
2026-04-22 17:26 43.98894 6.68045 21692 ft 372 kts 315°
2026-04-22 17:27 44.00758 6.65538 22193 ft 374 kts 315°
2026-04-22 17:27 44.02633 6.63014 22697 ft 377 kts 314°
2026-04-22 17:27 44.04513 6.60461 23192 ft 379 kts 314°
2026-04-22 17:27 44.06397 6.57881 23642 ft 381 kts 314°
2026-04-22 17:28 44.08285 6.55277 24039 ft 384 kts 314°
2026-04-22 17:28 44.10182 6.52650 24419 ft 385 kts 314°
2026-04-22 17:28 44.12083 6.50017 24787 ft 386 kts 314°
2026-04-22 17:28 44.13994 6.47367 25147 ft 389 kts 314°
2026-04-22 17:29 44.15909 6.44701 25541 ft 391 kts 314°
2026-04-22 17:29 44.17835 6.42016 25953 ft 392 kts 314°
2026-04-22 17:29 44.19740 6.39360 26337 ft 394 kts 314°
2026-04-22 17:29 44.21541 6.36422 26721 ft 395 kts 305°
2026-04-22 17:30 44.23091 6.33250 27073 ft 397 kts 304°
2026-04-22 17:30 44.24628 6.30102 27413 ft 399 kts 304°
2026-04-22 17:30 44.26192 6.26899 27782 ft 401 kts 304°
2026-04-22 17:30 44.27762 6.23678 28162 ft 402 kts 304°
2026-04-22 17:31 44.29338 6.20445 28478 ft 404 kts 304°
2026-04-22 17:31 44.30923 6.17194 28814 ft 406 kts 304°
2026-04-22 17:31 44.32517 6.13927 29147 ft 408 kts 304°
2026-04-22 17:31 44.34117 6.10648 29477 ft 410 kts 304°
2026-04-22 17:32 44.35723 6.07350 29806 ft 411 kts 304°
2026-04-22 17:32 44.37327 6.04050 30194 ft 409 kts 304°
2026-04-22 17:32 44.38916 6.00762 30511 ft 408 kts 304°
2026-04-22 17:32 44.40499 5.97480 30906 ft 407 kts 304°
2026-04-22 17:33 44.41545 5.95308 31178 ft 405 kts 304°
2026-04-22 17:33 44.43642 5.90948 31725 ft 403 kts 304°
2026-04-22 17:33 44.45206 5.87704 32142 ft 401 kts 304°
2026-04-22 17:33 44.46763 5.84481 32568 ft 399 kts 304°
2026-04-22 17:34 44.48315 5.81270 32992 ft 397 kts 304°
2026-04-22 17:34 44.49856 5.78070 33400 ft 395 kts 304°
2026-04-22 17:34 44.51387 5.74885 33797 ft 394 kts 304°
2026-04-22 17:34 44.52912 5.71704 34165 ft 392 kts 304°
2026-04-22 17:35 44.54430 5.68534 34480 ft 391 kts 304°
2026-04-22 17:35 44.55947 5.65369 34766 ft 391 kts 304°
2026-04-22 17:35 44.57466 5.62200 35019 ft 392 kts 304°
2026-04-22 17:35 44.58983 5.59028 35273 ft 392 kts 304°
2026-04-22 17:36 44.60502 5.55848 35527 ft 392 kts 304°
2026-04-22 17:36 44.61998 5.52711 35766 ft 392 kts 304°
2026-04-22 17:36 44.63516 5.49525 35984 ft 393 kts 304°
2026-04-22 17:36 44.65033 5.46328 36099 ft 392 kts 304°
2026-04-22 17:37 44.68026 5.40012 36118 ft 387 kts 304°
2026-04-22 17:37 44.70901 5.33633 36117 ft 386 kts 299°
2026-04-22 17:38 44.73348 5.26902 36118 ft 387 kts 297°
2026-04-22 17:38 44.75731 5.20110 36132 ft 387 kts 297°
2026-04-22 17:39 44.78122 5.13300 36134 ft 388 kts 297°
2026-04-22 17:40 44.81714 5.03097 36134 ft 388 kts 298°
2026-04-22 17:40 44.84110 4.96284 36135 ft 388 kts 298°
2026-04-22 17:41 44.86487 4.89517 36221 ft 389 kts 298°
2026-04-22 17:41 44.87684 4.86102 36481 ft 388 kts 297°
2026-04-22 17:41 44.88880 4.82681 36723 ft 388 kts 297°
2026-04-22 17:41 44.90068 4.79266 36951 ft 389 kts 297°
2026-04-22 17:42 44.91258 4.75837 37163 ft 389 kts 297°
2026-04-22 17:42 44.92451 4.72402 37355 ft 390 kts 297°
2026-04-22 17:42 44.93646 4.68965 37564 ft 391 kts 297°
2026-04-22 17:42 44.94843 4.65521 37779 ft 391 kts 297°
2026-04-22 17:43 44.96040 4.62074 37985 ft 391 kts 297°
2026-04-22 17:43 44.97239 4.58619 38111 ft 392 kts 297°
2026-04-22 17:43 44.98437 4.55158 38126 ft 394 kts 297°
2026-04-22 17:44 45.00852 4.48117 38114 ft 402 kts 294°
2026-04-22 17:44 45.02825 4.40681 38120 ft 405 kts 291°
2026-04-22 17:45 45.04682 4.33158 38112 ft 406 kts 291°
2026-04-22 17:45 45.06525 4.25618 38115 ft 406 kts 291°
2026-04-22 17:46 45.08383 4.18078 38113 ft 406 kts 291°
2026-04-22 17:46 45.10249 4.10543 38120 ft 406 kts 291°
2026-04-22 17:47 45.12113 4.03002 38120 ft 406 kts 291°
2026-04-22 17:47 45.13952 3.95508 38126 ft 406 kts 291°
2026-04-22 17:48 45.15503 3.89185 38127 ft 406 kts 291°
2026-04-22 17:48 45.17648 3.80406 38132 ft 406 kts 291°
2026-04-22 17:49 45.19485 3.72839 38126 ft 406 kts 291°
2026-04-22 17:49 45.21318 3.65268 38124 ft 406 kts 291°
2026-04-22 17:50 45.23145 3.57676 38117 ft 406 kts 291°
2026-04-22 17:50 45.24971 3.50092 38112 ft 407 kts 291°
2026-04-22 17:51 45.26797 3.42491 38104 ft 407 kts 291°
2026-04-22 17:51 45.28619 3.34879 38103 ft 407 kts 291°
2026-04-22 17:52 45.30438 3.27260 38095 ft 408 kts 291°
2026-04-22 17:52 45.32253 3.19623 38097 ft 408 kts 291°
2026-04-22 17:53 45.34052 3.11979 38086 ft 408 kts 290°
2026-04-22 17:53 45.35838 3.04379 38090 ft 408 kts 291°
2026-04-22 17:54 45.37641 2.96721 38089 ft 409 kts 290°
2026-04-22 17:54 45.39443 2.89052 38083 ft 409 kts 290°
2026-04-22 17:55 45.40949 2.82608 38093 ft 409 kts 290°
2026-04-22 17:55 45.43033 2.73665 38086 ft 410 kts 290°
2026-04-22 17:56 45.44812 2.65951 38079 ft 410 kts 290°
2026-04-22 17:56 45.46590 2.58224 38083 ft 411 kts 290°
2026-04-22 17:57 45.48367 2.50486 38079 ft 411 kts 290°
2026-04-22 17:57 45.50146 2.42740 38083 ft 411 kts 290°
2026-04-22 17:58 45.51919 2.34999 38072 ft 411 kts 290°
2026-04-22 17:58 45.53669 2.27297 38076 ft 410 kts 290°
2026-04-22 17:59 45.55423 2.19552 38076 ft 410 kts 290°
2026-04-22 17:59 45.57173 2.11810 38076 ft 410 kts 290°
2026-04-22 18:00 45.58622 2.05372 38073 ft 410 kts 290°
2026-04-22 18:00 45.60655 1.96308 38075 ft 410 kts 290°
2026-04-22 18:01 45.62389 1.88554 38065 ft 410 kts 290°
2026-04-22 18:01 45.64118 1.80797 38070 ft 410 kts 290°
2026-04-22 18:02 45.65839 1.73042 38080 ft 409 kts 290°
2026-04-22 18:02 45.67547 1.65290 38074 ft 408 kts 290°
2026-04-22 18:03 45.69249 1.57546 38065 ft 408 kts 290°
2026-04-22 18:03 45.70956 1.49807 38066 ft 408 kts 290°
2026-04-22 18:04 45.72644 1.42116 38063 ft 408 kts 290°
2026-04-22 18:04 45.74331 1.34370 38065 ft 407 kts 289°
2026-04-22 18:05 45.76011 1.26627 38065 ft 407 kts 289°
2026-04-22 18:05 45.77685 1.18878 38097 ft 407 kts 289°
2026-04-22 18:06 45.79396 1.11153 38091 ft 406 kts 295°
2026-04-22 18:06 45.80806 1.07684 38088 ft 403 kts 310°
2026-04-22 18:06 45.82814 1.04894 38087 ft 403 kts 319°
2026-04-22 18:07 45.86391 1.00614 38083 ft 404 kts 319°
2026-04-22 18:07 45.91449 0.94596 38077 ft 404 kts 319°
2026-04-22 18:08 45.95776 0.89438 38074 ft 404 kts 319°
2026-04-22 18:08 46.00093 0.84242 38069 ft 405 kts 319°
2026-04-22 18:09 46.04376 0.79071 38067 ft 405 kts 319°
2026-04-22 18:09 46.08688 0.73864 38064 ft 405 kts 319°
2026-04-22 18:10 46.13006 0.68647 38066 ft 405 kts 319°
2026-04-22 18:10 46.17315 0.63427 38067 ft 405 kts 318°
2026-04-22 18:11 46.21625 0.58191 38072 ft 405 kts 318°
2026-04-22 18:11 46.25936 0.52946 38076 ft 405 kts 318°
2026-04-22 18:12 46.30249 0.47680 38082 ft 406 kts 318°
2026-04-22 18:12 46.33829 0.43298 38087 ft 406 kts 318°
2026-04-22 18:13 46.38137 0.38021 38095 ft 406 kts 318°
2026-04-22 18:13 46.42449 0.32733 38094 ft 406 kts 318°
2026-04-22 18:14 46.46759 0.27425 38101 ft 406 kts 318°
2026-04-22 18:14 46.51070 0.22112 38100 ft 406 kts 318°
2026-04-22 18:15 46.55376 0.16799 38101 ft 406 kts 317°
2026-04-22 18:15 46.59682 0.11484 38100 ft 406 kts 317°
2026-04-22 18:16 46.63979 0.06153 38097 ft 406 kts 317°
2026-04-22 18:16 46.68272 0.00812 38094 ft 406 kts 317°
2026-04-22 18:17 46.72562 -0.04544 38096 ft 406 kts 317°
2026-04-22 18:17 46.76850 -0.09901 38094 ft 406 kts 317°
2026-04-22 18:18 46.81137 -0.15263 38094 ft 406 kts 317°
2026-04-22 18:18 46.85427 -0.20638 38098 ft 406 kts 317°
2026-04-22 18:19 46.89685 -0.25996 38100 ft 407 kts 317°
2026-04-22 18:19 46.93964 -0.31383 37614 ft 406 kts 317°
2026-04-22 18:19 46.96110 -0.34088 36892 ft 407 kts 316°
2026-04-22 18:20 46.98246 -0.36782 36257 ft 405 kts 316°
2026-04-22 18:20 47.00386 -0.39486 35553 ft 406 kts 316°
2026-04-22 18:20 47.02532 -0.42205 34733 ft 410 kts 316°
2026-04-22 18:20 47.04698 -0.44952 33947 ft 413 kts 316°
2026-04-22 18:21 47.06876 -0.47716 33043 ft 416 kts 316°
2026-04-22 18:21 47.09068 -0.50500 32310 ft 416 kts 317°
2026-04-22 18:21 47.11239 -0.53259 31781 ft 411 kts 317°
2026-04-22 18:21 47.13392 -0.55996 31178 ft 408 kts 317°
2026-04-22 18:22 47.15533 -0.58725 30588 ft 406 kts 317°
2026-04-22 18:22 47.17663 -0.61445 29943 ft 405 kts 317°
2026-04-22 18:22 47.19783 -0.64152 29308 ft 402 kts 317°
2026-04-22 18:22 47.21882 -0.66833 28727 ft 398 kts 317°
2026-04-22 18:23 47.23968 -0.69499 28150 ft 395 kts 317°
2026-04-22 18:23 47.26068 -0.72190 27567 ft 407 kts 317°
2026-04-22 18:23 47.28214 -0.74947 26971 ft 411 kts 317°
2026-04-22 18:24 47.32496 -0.80458 25793 ft 407 kts 317°
2026-04-22 18:24 47.34624 -0.83195 25208 ft 404 kts 317°
2026-04-22 18:24 47.38895 -0.88694 24058 ft 426 kts 317°
2026-04-22 18:25 47.41112 -0.91562 23440 ft 430 kts 317°
2026-04-22 18:25 47.43360 -0.94472 22845 ft 429 kts 317°
2026-04-22 18:25 47.45588 -0.97354 22313 ft 424 kts 317°
2026-04-22 18:26 47.50038 -1.03134 20581 ft 425 kts 317°
2026-04-22 18:26 47.52231 -1.05983 20114 ft 415 kts 317°
2026-04-22 18:26 47.54391 -1.08783 19534 ft 410 kts 318°
2026-04-22 18:26 47.56528 -1.11558 18888 ft 407 kts 318°
2026-04-22 18:27 47.58646 -1.14316 18231 ft 405 kts 318°
2026-04-22 18:27 47.60749 -1.17064 17521 ft 401 kts 318°
2026-04-22 18:27 47.62835 -1.19794 16875 ft 398 kts 318°
2026-04-22 18:27 47.64900 -1.22496 16224 ft 395 kts 318°
2026-04-22 18:28 47.66955 -1.25185 15595 ft 392 kts 318°
2026-04-22 18:28 47.68989 -1.27850 15061 ft 388 kts 318°
2026-04-22 18:28 47.71006 -1.30493 14527 ft 385 kts 318°
2026-04-22 18:28 47.73004 -1.33119 13994 ft 382 kts 318°
2026-04-22 18:29 47.74983 -1.35726 13413 ft 379 kts 318°
2026-04-22 18:29 47.76793 -1.38543 12729 ft 378 kts 305°
2026-04-22 18:29 47.78149 -1.41865 12164 ft 374 kts 301°
2026-04-22 18:29 47.79453 -1.45198 11614 ft 372 kts 300°
2026-04-22 18:30 47.80745 -1.48515 11054 ft 370 kts 300°
2026-04-22 18:30 47.83305 -1.55107 10554 ft 370 kts 300°
2026-04-22 18:30 47.84588 -1.58423 10408 ft 369 kts 300°
2026-04-22 18:31 47.85868 -1.61730 10252 ft 369 kts 300°
2026-04-22 18:31 47.87147 -1.65047 10109 ft 368 kts 300°
2026-04-22 18:31 47.88405 -1.68309 9953 ft 369 kts 300°
2026-04-22 18:31 47.89668 -1.71585 9533 ft 353 kts 300°
2026-04-22 18:32 47.90836 -1.74619 9351 ft 323 kts 300°
2026-04-22 18:32 47.91920 -1.77438 9208 ft 297 kts 300°
2026-04-22 18:32 47.92909 -1.80014 8780 ft 285 kts 300°
2026-04-22 18:32 47.93886 -1.82559 8170 ft 281 kts 300°
2026-04-22 18:33 47.94852 -1.85085 7521 ft 279 kts 300°
2026-04-22 18:33 47.95811 -1.87596 6877 ft 278 kts 300°
2026-04-22 18:33 47.96762 -1.90088 6221 ft 276 kts 300°
2026-04-22 18:33 47.97710 -1.92568 5645 ft 275 kts 300°
2026-04-22 18:34 47.98661 -1.95063 5236 ft 278 kts 300°
2026-04-22 18:34 47.99619 -1.97577 4843 ft 278 kts 300°
2026-04-22 18:34 48.00735 -1.99919 4337 ft 276 kts 319°
2026-04-22 18:34 48.02339 -2.01396 3911 ft 267 kts 345°
2026-04-22 18:35 48.04114 -2.01795 3593 ft 251 kts
2026-04-22 18:35 48.05792 -2.01404 3298 ft 240 kts 17°
2026-04-22 18:35 48.07406 -2.00957 2990 ft 232 kts 17°
2026-04-22 18:35 48.08945 -2.00419 2680 ft 219 kts 32°
2026-04-22 18:36 48.09980 -1.98972 2384 ft 200 kts 68°
2026-04-22 18:36 48.10175 -1.96986 2102 ft 194 kts 99°
2026-04-22 18:36 48.09934 -1.95056 2003 ft 183 kts 101°
2026-04-22 18:36 48.09709 -1.93276 2023 ft 164 kts 101°
2026-04-22 18:37 48.09512 -1.91700 2008 ft 147 kts 101°
2026-04-22 18:37 48.09330 -1.90225 2006 ft 142 kts 101°
2026-04-22 18:37 48.09214 -1.89275 2000 ft 138 kts 100°
2026-04-22 18:37 48.08984 -1.87418 1835 ft 133 kts 100°
2026-04-22 18:38 48.08816 -1.86072 1671 ft 130 kts 99°
2026-04-22 18:38 48.08648 -1.84742 1475 ft 131 kts 100°
2026-04-22 18:38 48.08481 -1.83412 1295 ft 130 kts 99°
2026-04-22 18:39 48.08146 -1.80760 932 ft 129 kts 99°
2026-04-22 18:39 48.07984 -1.79459 769 ft 129 kts 99°
2026-04-22 18:39 48.07821 -1.78145 594 ft 129 kts 99°
2026-04-22 18:39 48.07658 -1.76839 424 ft 127 kts 99°
2026-04-22 18:40 48.07492 -1.75536 261 ft 128 kts 100°
2026-04-22 18:40 48.07323 -1.74241 103 ft 125 kts 99°
2026-04-22 18:40 48.07187 -1.73182 128 ft 79 kts 100°
2026-04-22 18:40 48.07118 -1.72624 132 ft 30 kts 100°
2026-04-22 18:41 48.07098 -1.72469 132 ft 13 kts 101°
2026-04-22 18:41 48.07064 -1.72386 131 ft 9 kts 167°
2026-04-22 18:41 48.07018 -1.72411 132 ft 6 kts 210°
2026-04-22 18:41 48.06988 -1.72437 132 ft 3 kts 210°
2026-04-22 18:42 48.06975 -1.72446 133 ft 1 kts 200°
2026-04-22 18:42 48.06956 -1.72446 133 ft 4 kts 172°
2026-04-22 18:42 48.06918 -1.72445 133 ft 6 kts 193°
2026-04-22 18:42 48.06888 -1.72478 133 ft 3 kts 224°
2026-04-22 18:43 48.06880 -1.72490 133 ft 0 kts 225°